Szolnok, Hungary

4:16 PM CET on February 08, 2016 (GMT +0100)
Szolnok

Weather History for LHSN - May, 2013

Change the Weather History Date:

Wednesday, May 1, 2013

  Actual Average (LHBP) Record (LHBP)
Temperature  
Mean Temperature 73 °F -  
Max Temperature 84 °F 68 °F 87 °F (2012)
Min Temperature 62 °F 45 °F 39 °F (2002)
Cooling Degree Days 8    
Growing Degree Days 23 (Base 50)    
Moisture  
Dew Point 54 °F    
Average Humidity 53    
Maximum Humidity 83    
Minimum Humidity 30    
Precipitation  
Precipitation 0.00 in - - ()
Sea Level Pressure  
Sea Level Pressure 30.06 in    
Wind  
Wind Speed 5 mph ()    
Max Wind Speed 11 mph    
Max Gust Speed -    
Averages and records for this station are not official NWS values.
T = Trace of Precipitation, MM = Missing Value Source: Averaged Metar Reports

Daily Weather History Graph

Daily Weather History Graph

Search for Another Location

Airport or City:

Trip Planner

Search our weather history database for the weather conditions in past years. The results will help you decide how hot, cold, wet, or windy it might be!

Date:

Astronomy

May. 01, 2013 Rise Set
Actual Time 5:23 AM CEST 7:49 PM CEST
Civil Twilight 4:49 AM CEST 8:24 PM CEST
Nautical Twilight 4:06 AM CEST 9:06 PM CEST
Astronomical Twilight 3:18 AM CEST 9:55 PM CEST
Moon 12:48 AM CEST (5/1) 10:39 AM CEST (5/1)
Length of Visible Light 15h 34m
Length of Day
14h 26m
Waning Gibbous, 62% of the Moon is Illuminated
May 1
Waning Gibbous
May 2
Last Quarter
May 10
New
May 18
First Quarter
May 25
Full

Hourly Weather History & Observations

Time (CEST) Temp. Heat Index Dew Point Humidity Pressure Visibility Wind Dir Wind Speed Gust Speed Precip Events Conditions
12:15 AM 66.2 °F - 51.8 °F 60% 30.04 in - SW 4.5 mph - N/A   Clear
12:45 AM 64.4 °F - 53.6 °F 68% 30.04 in - SSW 6.7 mph - N/A   Clear
1:15 AM 68.0 °F - 51.8 °F 56% 30.04 in - SSW 6.7 mph - N/A   Clear
1:45 AM 69.8 °F - 51.8 °F 53% 30.04 in - SSW 6.7 mph - N/A   Clear
2:15 AM 69.8 °F - 51.8 °F 53% 30.04 in - SW 6.7 mph - N/A   Clear
2:45 AM 68.0 °F - 51.8 °F 56% 30.06 in - SW 6.7 mph - N/A   Clear
3:15 AM 68.0 °F - 51.8 °F 56% 30.06 in - WSW 4.5 mph - N/A   Clear
3:45 AM 66.2 °F - 51.8 °F 60% 30.06 in - WSW 4.5 mph - N/A   Clear
4:15 AM 66.2 °F - 51.8 °F 60% 30.06 in - SW 4.5 mph - N/A   Clear
4:45 AM 66.2 °F - 51.8 °F 60% 30.06 in - SW 4.5 mph - N/A   Clear
5:15 AM 66.2 °F - 51.8 °F 60% 30.06 in - SW 4.5 mph - N/A   Clear
5:45 AM 64.4 °F - 51.8 °F 64% 30.06 in - SW 4.5 mph - N/A   Clear
6:45 AM 66.2 °F - 53.6 °F 64% 30.06 in - SW 6.7 mph - N/A   Clear
7:15 AM 69.8 °F - 53.6 °F 56% 30.09 in - WSW 4.5 mph - N/A   Clear
7:45 AM 69.8 °F - 53.6 °F 56% 30.09 in - SW 6.7 mph - N/A   Clear
8:15 AM 69.8 °F - 55.4 °F 60% 30.09 in - SW 8.9 mph - N/A   Clear
8:45 AM 69.8 °F - 55.4 °F 60% 30.09 in - SW 6.7 mph - N/A   Clear
9:15 AM 69.8 °F - 55.4 °F 60% 30.09 in - SW 6.7 mph - N/A   Clear
9:45 AM 75.2 °F - 57.2 °F 53% 30.09 in - SW 6.7 mph - N/A   Clear
10:15 AM 77.0 °F - 59.0 °F 54% 30.09 in - SSW 4.5 mph - N/A   Clear
10:45 AM 77.0 °F - 59.0 °F 54% 30.09 in - SW 6.7 mph - N/A   Clear
11:15 AM 80.6 °F 80.5 °F 55.4 °F 42% 30.09 in - SW 6.7 mph - N/A   Clear
11:45 AM 80.6 °F 80.3 °F 53.6 °F 39% 30.09 in - SW 6.7 mph - N/A   Clear
12:15 PM 80.6 °F - 50.0 °F 34% 30.09 in - WSW 8.9 mph - N/A   Clear
12:45 PM - - - N/A% - - WSW 6.7 mph - N/A   Clear
1:15 PM 82.4 °F - 51.8 °F 35% 30.09 in - WSW 6.7 mph - N/A   Clear
1:45 PM 84.2 °F 82.8 °F 53.6 °F 35% 30.06 in - WSW 6.7 mph - N/A   Clear
2:15 PM 84.2 °F - 51.8 °F 33% 30.06 in - WSW 8.9 mph - N/A   Clear
2:45 PM 84.2 °F 82.8 °F 53.6 °F 35% 30.06 in - WSW 11.2 mph - N/A   Clear
3:15 PM 84.2 °F - 50.0 °F 30% 30.06 in - WSW 8.9 mph - N/A   Clear
3:45 PM - - - N/A% - - WSW 6.7 mph - N/A   Clear
4:15 PM 84.2 °F - 50.0 °F 30% 30.04 in - West 8.9 mph - N/A   Clear
4:45 PM 84.2 °F - 50.0 °F 30% 30.04 in - West 8.9 mph - N/A   Clear
5:15 PM 84.2 °F - 51.8 °F 33% 30.04 in - West 8.9 mph - N/A   Clear
5:45 PM 84.2 °F - 51.8 °F 33% 30.04 in - West 6.7 mph - N/A   Clear
6:15 PM 82.4 °F 81.4 °F 53.6 °F 37% 30.04 in - WNW 6.7 mph - N/A   Clear
6:45 PM - - - N/A% - - WSW 6.7 mph - N/A   Clear
7:15 PM 80.6 °F 80.3 °F 53.6 °F 39% 30.04 in - West 2.2 mph - N/A   Clear
7:45 PM 75.2 °F - 55.4 °F 50% 30.04 in - WNW 2.2 mph - N/A   Clear
8:15 PM 73.4 °F - 57.2 °F 57% 30.04 in - Calm Calm - N/A   Clear
8:45 PM 71.6 °F - 55.4 °F 57% 30.06 in - Calm Calm - N/A   Clear
9:15 PM 69.8 °F - 57.2 °F 64% 30.06 in - Calm Calm - N/A   Clear
9:45 PM 68.0 °F - 57.2 °F 68% 30.06 in - Calm Calm - N/A   Clear
10:15 PM 68.0 °F - 57.2 °F 68% 30.06 in - ENE 2.2 mph - N/A   Clear
10:45 PM 62.6 °F - 57.2 °F 82% 30.06 in - NE 4.5 mph - N/A   Clear
11:15 PM 64.4 °F - 59.0 °F 83% 30.06 in - ENE 8.9 mph - N/A   Clear
11:45 PM 62.6 °F - 57.2 °F 82% 30.06 in - ENE 8.9 mph - N/A   Clear